Location: Bluff Heights
(33.7692°N, 118.1592°W)
Time: 23:04:10
(UTC+00:00)

Tiros 1 - Pass Details

Date: 01 August 2021
Orbit: 630 x 663 km, 48.4° (Epoch: 20 September)

Event Time Altitude Azimuth Distance (km) Brightness Sun altitude
Rises 05:10:32 0° 308° (NW) 2,969 11.9 -24.5°
Reaches altitude 10° 05:14:04 10° 334° (NNW) 2,050 10.7 -25.0°
Maximum altitude 05:16:26 14° 5° (N) 1,813 9.9 -25.4°
Drops below altitude 10° 05:18:48 10° 35° (NE) 2,038 9.8 -25.7°
Enters shadow 05:20:07 - 48° (NE) 2,324 10.0 -25.9°
Sets 05:22:17 0° 62° (ENE) 2,939 - -26.2°
